GW5247 Weather Reports


time (UTC)temp
F
wind
direction
speed
knots
gust
knots
rain 1hr
in
rain 24hr
in
rain mn
in
humidity
%
barometer
mb
20260503045517 49 9 0.9 2.6 0.00 0.49 0.00 96 1015.2
20260503044517 49 195 0.0 1.7 0.00 0.49 0.00 96 1015.2
20260503043517 49 30 0.0 0.9 0.00 0.49 0.00 96 1015.2
20260503042517 49 76 0.0 0.9 0.00 0.49 0.00 96 1015.1
20260503041518 48 75 0.0 0.9 0.00 0.49 0.00 96 1015.0
20260503040518 48 16 0.9 2.6 0.00 0.49 0.00 96 1014.9
20260503035538 47 66 0.0 0.9 0.00 0.49 0.49 96 1015.0
20260503034538 47 0.0 0.0 0.00 0.49 0.49 96 1014.9
20260503033539 47 191 0.0 0.0 0.00 0.49 0.49 96 1014.9
20260503032518 47 39 0.0 0.9 0.00 0.49 0.49 96 1014.8
20260503031518 47 0.0 0.0 0.00 0.49 0.49 96 1014.8
20260503030519 48 48 0.0 0.9 0.00 0.49 0.49 96 1014.8
20260503025519 48 28 0.9 1.7 0.00 0.49 0.49 96 1014.6
20260503024519 48 58 0.0 0.0 0.00 0.49 0.49 95 1014.6
20260503023540 48 0.0 0.0 0.00 0.49 0.49 95 1014.5
20260503022519 48 56 0.0 0.0 0.00 0.49 0.49 95 1014.3
20260503021520 49 0.0 0.0 0.00 0.49 0.49 95 1014.5
20260503020520 49 44 0.0 0.0 0.00 0.49 0.49 95 1014.6
20260503015520 49 0.0 0.0 0.00 0.49 0.49 95 1014.6
20260503014520 49 0.0 0.0 0.00 0.49 0.49 95 1014.5
20260503013520 49 21 0.9 1.7 0.00 0.49 0.49 95 1014.3
20260503012541 49 322 0.0 0.9 0.00 0.49 0.49 94 1014.2
20260503011520 49 0.0 0.0 0.00 0.49 0.49 94 1014.2
20260503010521 50 93 0.0 0.9 0.00 0.49 0.49 94 1014.0
20260503005521 50 0.0 0.0 0.00 0.49 0.49 93 1013.7
20260503004521 51 0.0 0.0 0.00 0.49 0.49 92 1013.6
20260503003521 52 0.0 0.0 0.00 0.49 0.49 91 1013.4
20260503002521 52 115 0.0 0.9 0.00 0.49 0.49 91 1013.3
20260503001521 53 325 0.0 0.0 0.00 0.49 0.49 91 1013.0
20260503000522 53 16 0.9 0.9 0.00 0.49 0.49 90 1012.8
20260502235522 53 5 0.0 0.9 0.00 0.49 0.49 90 1012.7
20260502234522 53 37 0.9 1.7 0.00 0.49 0.49 89 1012.6
20260502233558 53 14 0.9 1.7 0.00 0.49 0.49 89 1012.5
20260502232522 53 96 0.0 1.7 0.00 0.49 0.49 88 1012.5
20260502231523 54 59 0.0 0.9 0.00 0.49 0.49 87 1012.4
20260502230523 54 19 0.0 0.9 0.00 0.49 0.49 87 1012.3
20260502225523 54 39 0.9 1.7 0.00 0.49 0.49 87 1012.3
20260502224523 54 19 0.9 0.9 0.00 0.49 0.49 86 1012.3
20260502223524 54 71 0.9 1.7 0.00 0.49 0.49 85 1012.3
20260502222524 54 15 0.9 0.9 0.00 0.49 0.49 85 1012.3
20260502221524 55 169 0.0 0.9 0.00 0.49 0.49 84 1012.2
20260502220524 55 19 0.9 1.7 0.00 0.49 0.49 83 1012.0
20260502215524 55 66 0.9 1.7 0.00 0.49 0.49 84 1011.8
20260502214545 55 67 0.9 1.7 0.00 0.49 0.49 82 1012.0
20260502213524 55 16 0.9 1.7 0.00 0.49 0.49 83 1011.9
20260502212545 55 14 1.7 3.5 0.00 0.49 0.49 82 1011.8
20260502211525 55 21 0.9 2.6 0.00 0.49 0.49 82 1011.9
20260502210545 55 359 0.9 3.5 0.00 0.49 0.49 82 1011.9
20260502205535 55 17 1.7 4.3 0.00 0.49 0.49 83 1012.0
20260502204525 55 2 0.9 3.5 0.00 0.49 0.49 83 1012.0
20260502203525 55 39 0.9 2.6 0.00 0.49 0.49 83 1012.0
20260502202525 55 31 1.7 2.6 0.00 0.49 0.49 83 1012.1
20260502201525 55 9 1.7 3.5 0.00 0.49 0.49 84 1012.0
20260502200517 55 357 1.7 5.2 0.00 0.49 0.49 82 1011.9
20260502195517 55 4 1.7 5.2 0.00 0.49 0.49 83 1012.0
20260502194537 55 359 2.6 5.2 0.00 0.49 0.49 83 1012.1
20260502193517 55 358 3.5 8.7 0.00 0.50 0.49 84 1012.1
20260502192537 54 356 2.6 7.0 0.00 0.50 0.49 83 1012.3
20260502191517 54 13 2.6 6.1 0.00 0.50 0.49 85 1012.4
20260502190537 54 2 2.6 5.2 0.01 0.50 0.49 87 1012.4
20260502185517 54 357 3.5 7.8 0.01 0.50 0.49 88 1012.5
20260502184517 53 8 2.6 7.0 0.01 0.50 0.49 89 1012.5
20260502183518 54 5 3.5 6.1 0.02 0.50 0.49 89 1012.4
20260502182538 53 2 2.6 8.7 0.02 0.50 0.49 90 1012.6
20260502181538 53 1 2.6 5.2 0.02 0.50 0.49 90 1013.0
20260502180518 52 22 1.7 5.2 0.02 0.51 0.48 91 1012.9
20260502170518 52 13 2.6 7.8 0.09 0.52 0.47 91 1013.3
20260502163519 52 10 2.6 6.1 0.12 0.50 0.44 91 1013.5
20260502162519 52 3 3.5 7.8 0.10 0.48 0.42 91 1014.1
20260502161519 52 7 2.6 5.2 0.09 0.46 0.41 92 1014.0
20260502160519 52 3 3.5 7.0 0.07 0.43 0.38 91 1014.0
20260502151520 53 4 3.5 5.2 0.06 0.37 0.31 93 1013.5
20260502150520 53 17 2.6 7.0 0.07 0.36 0.31 92 1013.7
20260502130516 52 7 4.3 7.0 0.07 0.24 0.17 91 1013.0
20260502123516 52 12 3.5 6.1 0.09 0.23 0.15 91 1012.6
20260502122516 52 6 3.5 7.0 0.08 0.22 0.15 91 1012.4
20260502121516 52 6 3.5 8.7 0.07 0.20 0.13 90 1012.4
20260502120516 52 10 4.3 8.7 0.06 0.17 0.10 90 1012.5
20260502115516 52 3 3.5 7.0 0.05 0.16 0.09 90 1012.5
20260502114517 52 2 3.5 7.0 0.05 0.15 0.07 90 1012.6
20260502113517 52 7 4.3 7.0 0.05 0.14 0.07 89 1012.6
20260502112537 53 6 4.3 7.8 0.06 0.14 0.06 88 1012.7
20260502111515 53 11 4.3 9.6 0.06 0.13 0.06 88 1012.9
20260502110516 53 358 4.3 7.0 0.04 0.12 0.04 88 1012.9
20260502105516 53 1 4.3 7.0 0.03 0.11 0.03 89 1012.8
20260502104516 53 357 4.3 7.0 0.03 0.10 0.03 89 1012.7
20260502103516 53 16 5.2 7.8 0.01 0.09 0.01 89 1012.8
20260502102516 53 10 4.3 7.8 0.01 0.08 0.01 89 1012.7
20260502101516 53 10 4.3 8.7 0.00 0.07 0.00 89 1012.7
20260502100517 53 14 3.5 7.8 0.00 0.07 0.00 89 1012.8
20260502091516 53 15 2.6 5.2 0.00 0.07 0.00 92 1012.8
20260502090516 53 16 3.5 6.1 0.00 0.07 0.00 92 1012.7
20260502071515 52 18 2.6 3.5 0.00 0.07 0.00 95 1011.8
20260502070515 52 19 2.6 3.5 0.00 0.07 0.00 95 1011.9
20260502065636 52 15 2.6 4.3 0.00 0.07 0.00 95 1012.0
20260502064516 52 11 1.7 3.5 0.00 0.07 0.00 95 1012.2
20260502063516 52 15 2.6 3.5 0.00 0.07 0.00 95 1012.2
20260502062516 52 14 2.6 3.5 0.00 0.07 0.00 95 1012.3
20260502061516 52 18 0.9 2.6 0.00 0.07 0.00 95 1012.4
20260502060516 52 16 0.0 0.9 0.00 0.07 0.00 95 1012.5
20260502055516 52 30 0.0 0.9 0.00 0.07 0.00 95 1012.5
20260502054516 52 46 0.0 0.9 0.00 0.07 0.00 95 1012.7
20260502053516 52 30 0.0 0.9 0.00 0.07 0.00 95 1012.9
20260502052537 52 28 0.0 1.7 0.00 0.07 0.00 95 1012.9
20260502051517 52 45 0.9 1.7 0.00 0.07 0.00 95 1013.1
20260502050517 52 18 1.7 2.6 0.00 0.07 0.00 95 1013.2